Regional Weather Roundup
Issued by NWS

Home | Current Version | Previous Version | Text Only | Print | Product List | Glossary Off
Versions: 1 2 3 4 5 6 7 8 9 10 11 12 13 14 15 16 17 18 19 20 21 22 23 24 25 26 27 28 29 30 31 32 33 34 35 36 37 38 39 40 41 42 43 44 45 46 47 48 49 50

810
ASUS43 KLOT 140303
RWRIL

ILLINOIS REGIONAL WEATHER ROUNDUP
NATIONAL WEATHER SERVICE CHICAGO/ROMEOVILLE IL
900 PM CST SAT FEB 13 2016

NOTE: "FAIR" INDICATES FEW OR NO CLOUDS BELOW 12,000 FEET WITH NO
SIGNIFICANT WEATHER AND/OR OBSTRUCTIONS TO VISIBILITY.

* THESE STATIONS ARE NOT UNDER NWS QUALITY CONTROL. THEY ALSO MAY NOT
  REPORT WEATHER SUCH AS PRECIPITATION OR FOG.

ILZ001-002-007-009-015-016-024-140400-
NORTHWEST ILLINOIS

CITY           SKY/WX    TMP DP  RH WIND       PRES   REMARKS
MOLINE         CLOUDY    17  -2  43 E9        30.45F WCI   6
STERLING*      CLOUDY    12   0  57 E6        30.43F WCI   3
$$

ILZ003-004-008-010-011-017-018-140400-
NORTH CENTRAL ILLINOIS

CITY           SKY/WX    TMP DP  RH WIND       PRES   REMARKS
ROCKFORD       CLOUDY     9   0  67 SE3       30.48F
FREEPORT*      CLOUDY     8   0  70 CALM      30.47F
DE KALB*       CLOUDY    10   0  63 CALM      30.46F
$$

ILZ005-006-012>014-019>023-140400-
NORTHEAST ILLINOIS

CITY           SKY/WX    TMP DP  RH WIND       PRES   REMARKS
CHICAGO-OHARE  CLOUDY    12  -4  48 CALM      30.48S
CHICAGO-MIDWAY PTCLDY    15  -5  40 NW3       30.49S
AURORA         CLOUDY    12   3  67 CALM      30.48F
LANSING*       CLOUDY    11   0  60 SE3       30.49F
WAUKEGAN       CLEAR      2  -3  80 CALM      30.47F
DUPAGE AIRPORT CLOUDY    10  -1  61 CALM      30.47S
WHEELING       PTCLDY    10  -2  58 CALM      30.50S
NORTHERLY ISL    N/A     16  -8  34 CALM        N/A
$$

LMZ740>746-140400-
SOUTHERN LAKE MICHIGAN

STATION/POSITION SKY/WX   TEMP    WIND        PRES    VSBY  WAVE
                          AIR SEA DIR/SP/G                  HT/PER
                          (F)     (DEG/KT/KT) (MB)    (MI)  (FT/S)
HARRISON CRIB              17     350/  3/  4   N/A
BURNHAM HARBOR             16      CALM  /  4   N/A
CALUMET HARBOR             15                 1031.7F
BURNS HARBOR               13     170/  4/  6 1032.8F
MICHIGAN CITY              12     150/  4/  5   N/A
$$

ILZ025>027-034>036-040-047-049-050-058-095>099-140400-
WEST-CENTRAL ILLINOIS

CITY           SKY/WX    TMP DP  RH WIND       PRES   REMARKS
QUINCY         CLOUDY    18   6  59 E13       30.42F WCI   5
MACOMB*        CLOUDY    19   4  52 SE12      30.47F WCI   7
$$

ILZ028>032-037-038-041>044-048-051>054-059>061-140400-
CENTRAL ILLINOIS

CITY           SKY/WX    TMP DP  RH WIND       PRES   REMARKS
BLOOMINGTON    MOCLDY    16   4  59 SE6       30.46F WCI   8
DECATUR        MOCLDY    19   2  47 SE10      30.47F WCI   7
PEORIA         MOCLDY    18  -1  43 SE6       30.47F WCI  10
LINCOLN*       CLOUDY    19   4  50 SE5       30.47F WCI  13
SPRINGFIELD    CLOUDY    20   5  52 SE7       30.47F WCI  11
TAYLORVILLE    NOT AVBL
$$

ILZ033-039-045-046-055>057-062-063-140400-
EAST-CENTRAL ILLINOIS

CITY           SKY/WX    TMP DP  RH WIND       PRES   REMARKS
CHAMPAIGN      CLOUDY    17   4  56 E9        30.47F WCI   6
MATTOON        PTCLDY    17   3  54 E6        30.47F WCI   9
$$

ILZ079-100>102-140400-
SOUTHWEST ILLINOIS

CITY           SKY/WX    TMP DP  RH WIND       PRES   REMARKS
BELLEVILLE     CLOUDY    22   5  48 E9        30.44F WCI  12
CAHOKIA*       CLOUDY    23   4  44 E8        30.45F WCI  14
SPARTA*        CLOUDY    23   7  51 E6        30.45F WCI  15
$$

ILZ064>066-069>071-074>076-080>082-084>086-088>090-092>094-140400-
SOUTH-CENTRAL ILLINOIS

CITY           SKY/WX    TMP DP  RH WIND       PRES   REMARKS
CARBONDALE     CLOUDY    23   6  48 E9        30.45F WCI  13
MARION         CLOUDY    23   7  50 E8        30.46F WCI  14
MT. VERNON     CLOUDY    21   3  45 E6        30.47F WCI  14
CENTRALIA*     CLOUDY    23   7  51 E9        30.45F WCI  13
SALEM*         CLOUDY    22   6  48 E8        30.46F WCI  13
$$

ILZ067-068-072-073-078-083-087-091-140400-
SOUTHEAST ILLINOIS

CITY           SKY/WX    TMP DP  RH WIND       PRES   REMARKS
LAWRENCEVILLE  PTCLDY    19   4  51 NE7       30.51F WCI  10
HARRISBURG*    CLOUDY    23   9  53 E10       30.47F WCI  13
$$

ABBREVIATIONS USED IN REMARKS
   TC - TEMPERATURE IN CELSIUS
  WCI - WIND CHILL INDEX
   HX - HEAT INDEX
  VSB - VISIBILITY
$$





USA.gov is the U.S. government's official web portal to all federal, state and local government web resources and services.